datetime,storage
1950-01-01,120494.0
1950-01-02,120450.0
1950-01-03,120405.0
1950-01-04,120250.0
1950-01-05,120095.0
1950-01-06,119940.0
1950-01-07,119830.0
1950-01-08,119720.0
1950-01-09,119609.0
1950-01-10,119498.0
1950-01-11,119387.0
1950-01-12,119276.0
1950-01-13,119166.0
1950-01-14,119055.0
1950-01-15,118945.0
1950-01-16,119055.0
1950-01-17,119166.0
1950-01-18,119276.0
1950-01-19,119299.0
1950-01-20,119321.0
1950-01-21,119343.0
1950-01-22,119365.0
1950-01-23,119387.0
1950-01-24,119409.0
1950-01-25,119431.0
1950-01-26,119365.0
1950-01-27,119299.0
1950-01-28,119232.0
1950-01-29,119166.0
1950-01-30,119100.0
1950-01-31,119056.0
1950-02-01,118945.0
1950-02-02,118834.0
1950-02-03,118723.0
1950-02-04,118612.0
1950-02-05,118679.0
1950-02-06,118945.0
1950-02-07,119387.0
1950-02-08,119387.0
1950-02-09,119387.0
1950-02-10,119431.0
1950-02-11,119498.0
1950-02-12,119498.0
1950-02-13,119431.0
1950-02-14,119387.0
1950-02-15,119387.0
1950-02-16,119277.0
1950-02-17,119166.0
1950-02-18,119056.0
1950-02-19,118945.0
1950-02-20,118878.0
1950-02-21,118812.0
1950-02-22,118745.0
1950-02-23,118679.0
1950-02-24,118745.0
1950-02-25,118812.0
1950-02-26,118878.0
1950-02-27,118945.0
1950-02-28,119056.0
1950-03-01,119232.0
1950-03-02,119409.0
1950-03-03,119542.0
1950-03-04,119675.0
1950-03-05,119830.0
1950-03-06,119985.0
1950-03-07,120095.0
1950-03-08,120161.0
1950-03-09,120228.0
1950-03-10,120272.0
1950-03-11,120250.0
1950-03-12,120228.0
1950-03-13,120206.0
1950-03-14,120184.0
1950-03-15,120162.0
1950-03-16,120206.0
1950-03-17,120251.0
1950-03-18,120294.0
1950-03-19,120339.0
1950-03-20,120383.0
1950-03-21,120383.0
1950-03-22,120472.0
1950-03-23,120561.0
1950-03-24,120649.0
1950-03-25,120715.0
1950-03-26,120715.0
1950-03-27,120715.0
1950-03-28,120715.0
1950-03-29,120715.0
1950-03-30,120715.0
1950-03-31,120715.0
1950-04-01,120872.0
1950-04-02,121029.0
1950-04-03,121185.0
1950-04-04,121342.0
1950-04-05,121499.0
1950-04-06,121723.0
1950-04-07,122059.0
1950-04-08,122507.0
1950-04-09,123068.0
1950-04-10,123341.0
1950-04-11,123567.0
1950-04-12,123862.0
1950-04-13,124203.0
1950-04-14,124656.0
1950-04-15,125110.0
1950-04-16,125568.0
1950-04-17,126027.0
1950-04-18,126510.0
1950-04-19,127061.0
1950-04-20,127754.0
1950-04-21,128687.0
1950-04-22,129736.0
1950-04-23,130871.0
1950-04-24,131937.0
1950-04-25,132775.0
1950-04-26,133304.0
1950-04-27,133594.0
1950-04-28,133883.0
1950-04-29,134195.0
1950-04-30,134508.0
1950-05-01,134654.0
1950-05-02,134801.0
1950-05-03,134948.0
1950-05-04,135095.0
1950-05-05,135242.0
1950-05-06,135413.0
1950-05-07,135609.0
1950-05-08,135976.0
1950-05-09,136392.0
1950-05-10,136833.0
1950-05-11,137029.0
1950-05-12,137152.0
1950-05-13,137302.0
1950-05-14,137501.0
1950-05-15,137925.0
1950-05-16,138497.0
1950-05-17,139369.0
1950-05-18,140200.0
1950-05-19,141035.0
1950-05-20,141769.0
1950-05-21,142483.0
1950-05-22,143587.0
1950-05-23,144950.0
1950-05-24,146224.0
1950-05-25,147396.0
1950-05-26,148054.0
1950-05-27,148265.0
1950-05-28,148502.0
1950-05-29,148765.0
1950-05-30,149108.0
1950-05-31,149688.0
1950-06-01,150351.0
1950-06-02,150564.0
1950-06-03,150112.0
1950-06-04,149556.0
1950-06-05,149556.0
1950-06-06,150165.0
1950-06-07,151151.0
1950-06-08,151418.0
1950-06-09,151098.0
1950-06-10,150778.0
1950-06-11,150831.0
1950-06-12,151311.0
1950-06-13,151817.0
1950-06-14,152111.0
1950-06-15,152164.0
1950-06-16,152111.0
1950-06-17,152111.0
1950-06-18,152270.0
1950-06-19,152457.0
1950-06-20,152564.0
1950-06-21,152618.0
1950-06-22,152618.0
1950-06-23,152510.0
1950-06-24,152457.0
1950-06-25,152537.0
1950-06-26,152564.0
1950-06-27,152618.0
1950-06-28,152672.0
1950-06-29,152753.0
1950-06-30,152780.0
1950-07-01,152699.0
1950-07-02,152618.0
1950-07-03,152404.0
1950-07-04,152270.0
1950-07-05,152164.0
1950-07-06,152058.0
1950-07-07,151978.0
1950-07-08,151898.0
1950-07-09,151817.0
1950-07-10,151737.0
1950-07-11,151737.0
1950-07-12,151631.0
1950-07-13,151498.0
1950-07-14,151365.0
1950-07-15,151178.0
1950-07-16,150911.0
1950-07-17,150645.0
1950-07-18,150351.0
1950-07-19,150032.0
1950-07-20,149715.0
1950-07-21,149397.0
1950-07-22,149082.0
1950-07-23,148713.0
1950-07-24,148318.0
1950-07-25,147923.0
1950-07-26,147527.0
1950-07-27,147108.0
1950-07-28,146692.0
1950-07-29,146276.0
1950-07-30,145860.0
1950-07-31,145444.0
1950-08-01,145080.0
1950-08-02,144716.0
1950-08-03,144356.0
1950-08-04,143997.0
1950-08-05,143638.0
1950-08-06,143252.0
1950-08-07,142868.0
1950-08-08,142483.0
1950-08-09,142098.0
1950-08-10,141718.0
1950-08-11,141339.0
1950-08-12,140984.0
1950-08-13,140631.0
1950-08-14,140276.0
1950-08-15,139922.0
1950-08-16,139568.0
1950-08-17,139219.0
1950-08-18,138921.0
1950-08-19,138572.0
1950-08-20,138248.0
1950-08-21,137925.0
1950-08-22,137601.0
1950-08-23,137252.0
1950-08-24,136882.0
1950-08-25,136514.0
1950-08-26,136147.0
1950-08-27,135707.0
1950-08-28,135266.0
1950-08-29,134825.0
1950-08-30,134364.0
1950-08-31,133907.0
1950-09-01,133425.0
1950-09-02,132943.0
1950-09-03,132462.0
1950-09-04,131994.0
1950-09-05,131511.0
1950-09-06,131084.0
1950-09-07,130658.0
1950-09-08,130208.0
1950-09-09,129783.0
1950-09-10,129364.0
1950-09-11,128943.0
1950-09-12,128617.0
1950-09-13,128268.0
1950-09-14,127894.0
1950-09-15,127521.0
1950-09-16,127222.0
1950-09-17,126924.0
1950-09-18,126602.0
1950-09-19,126280.0
1950-09-20,125958.0
1950-09-21,125637.0
1950-09-22,125315.0
1950-09-23,125041.0
1950-09-24,124769.0
1950-09-25,124543.0
1950-09-26,124293.0
1950-09-27,124044.0
1950-09-28,123794.0
1950-09-29,123545.0
1950-09-30,123295.0
1950-10-01,123000.0
1950-10-02,122709.0
1950-10-03,122417.0
1950-10-04,122126.0
1950-10-05,122104.0
1950-10-06,122149.0
1950-10-07,122193.0
1950-10-08,122238.0
1950-10-09,122283.0
1950-10-10,122328.0
1950-10-11,122373.0
1950-10-12,122417.0
1950-10-13,122462.0
1950-10-14,122462.0
1950-10-15,122462.0
1950-10-16,122417.0
1950-10-17,122373.0
1950-10-18,122328.0
1950-10-19,122283.0
1950-10-20,122238.0
1950-10-21,122193.0
1950-10-22,122149.0
1950-10-23,122104.0
1950-10-24,122059.0
1950-10-25,121992.0
1950-10-26,121925.0
1950-10-27,121857.0
1950-10-28,121790.0
1950-10-29,121723.0
1950-10-30,121723.0
1950-10-31,121723.0
1950-11-01,121835.0
1950-11-02,121947.0
1950-11-03,122059.0
1950-11-04,122171.0
1950-11-05,122328.0
1950-11-06,122485.0
1950-11-07,122641.0
1950-11-08,122776.0
1950-11-09,122910.0
1950-11-10,123045.0
1950-11-11,123182.0
1950-11-12,123318.0
1950-11-13,123544.0
1950-11-14,123832.0
1950-11-15,124089.0
1950-11-16,124316.0
1950-11-17,124543.0
1950-11-18,125223.0
1950-11-19,125752.0
1950-11-20,126280.0
1950-11-21,126809.0
1950-11-22,127337.0
1950-11-23,127684.0
1950-11-24,127987.0
1950-11-25,128174.0
1950-11-26,128291.0
1950-11-27,128384.0
1950-11-28,128477.0
1950-11-29,128570.0
1950-11-30,128664.0
1950-12-01,128687.0
1950-12-02,128687.0
1950-12-03,128920.0
1950-12-04,129387.0
1950-12-05,129504.0
1950-12-06,129573.0
1950-12-07,129690.0
1950-12-08,129853.0
1950-12-09,130019.0
1950-12-10,130161.0
1950-12-11,130303.0
1950-12-12,130445.0
1950-12-13,130516.0
1950-12-14,130587.0
1950-12-15,130634.0
1950-12-16,130682.0
1950-12-17,130729.0
1950-12-18,130753.0
1950-12-19,130776.0
1950-12-20,130800.0
1950-12-21,130776.0
1950-12-22,130753.0
1950-12-23,130729.0
1950-12-24,130706.0
1950-12-25,130682.0
1950-12-26,130658.0
1950-12-27,130634.0
1950-12-28,130587.0
1950-12-29,130539.0
1950-12-30,130492.0
1950-12-31,130445.0
1951-01-01,130374.0
1951-01-02,130303.0
1951-01-03,130232.0
1951-01-04,130137.0
1951-01-05,130043.0
1951-01-06,129948.0
1951-01-07,129853.0
1951-01-08,129736.0
1951-01-09,129620.0
1951-01-10,129504.0
1951-01-11,129387.0
1951-01-12,129270.0
1951-01-13,129270.0
1951-01-14,129270.0
1951-01-15,129270.0
1951-01-16,129270.0
1951-01-17,129200.0
1951-01-18,129106.0
1951-01-19,129013.0
1951-01-20,128920.0
1951-01-21,128827.0
1951-01-22,128780.0
1951-01-23,128734.0
1951-01-24,128664.0
1951-01-25,128594.0
1951-01-26,128524.0
1951-01-27,128454.0
1951-01-28,128338.0
1951-01-29,128221.0
1951-01-30,128104.0
1951-01-31,127987.0
1951-02-01,127870.0
1951-02-02,127754.0
1951-02-03,127638.0
1951-02-04,127638.0
1951-02-05,127684.0
1951-02-06,127754.0
1951-02-07,127684.0
1951-02-08,127638.0
1951-02-09,127638.0
1951-02-10,127638.0
1951-02-11,127684.0
1951-02-12,127824.0
1951-02-13,127777.0
1951-02-14,127731.0
1951-02-15,127684.0
1951-02-16,127637.0
1951-02-17,127591.0
1951-02-18,127544.0
1951-02-19,127475.0
1951-02-20,127406.0
1951-02-21,127337.0
1951-02-22,127268.0
1951-02-23,127199.0
1951-02-24,127130.0
1951-02-25,127061.0
1951-02-26,127038.0
1951-02-27,127015.0
1951-02-28,126992.0
1951-03-01,126901.0
1951-03-02,126809.0
1951-03-03,126717.0
1951-03-04,126625.0
1951-03-05,126533.0
1951-03-06,126487.0
1951-03-07,126533.0
1951-03-08,126625.0
1951-03-09,126717.0
1951-03-10,126809.0
1951-03-11,126901.0
1951-03-12,126832.0
1951-03-13,126763.0
1951-03-14,126763.0
1951-03-15,126763.0
1951-03-16,126740.0
1951-03-17,126717.0
1951-03-18,126717.0
1951-03-19,126740.0
1951-03-20,126763.0
1951-03-21,126786.0
1951-03-22,126809.0
1951-03-23,126832.0
1951-03-24,126855.0
1951-03-25,126878.0
1951-03-26,126901.0
1951-03-27,126924.0
1951-03-28,126946.0
1951-03-29,126969.0
1951-03-30,126992.0
1951-03-31,127015.0
1951-04-01,127084.0
1951-04-02,127153.0
1951-04-03,127245.0
1951-04-04,127383.0
1951-04-05,127521.0
1951-04-06,127661.0
1951-04-07,127870.0
1951-04-08,128081.0
1951-04-09,128291.0
1951-04-10,128501.0
1951-04-11,128710.0
1951-04-12,128920.0
1951-04-13,129262.0
1951-04-14,129503.0
1951-04-15,129924.0
1951-04-16,130327.0
1951-04-17,130800.0
1951-04-18,131274.0
1951-04-19,131747.0
1951-04-20,132221.0
1951-04-21,132655.0
1951-04-22,132991.0
1951-04-23,133280.0
1951-04-24,133570.0
1951-04-25,133835.0
1951-04-26,134075.0
1951-04-27,134243.0
1951-04-28,134436.0
1951-04-29,134653.0
1951-04-30,134871.0
1951-05-01,135095.0
1951-05-02,135266.0
1951-05-03,135364.0
1951-05-04,135413.0
1951-05-05,135462.0
1951-05-06,135511.0
1951-05-07,135707.0
1951-05-08,135878.0
1951-05-09,136049.0
1951-05-10,136220.0
1951-05-11,136592.0
1951-05-12,136710.0
1951-05-13,137078.0
1951-05-14,137277.0
1951-05-15,137402.0
1951-05-16,137402.0
1951-05-17,137402.0
1951-05-18,137402.0
1951-05-19,137402.0
1951-05-20,137825.0
1951-05-21,138821.0
1951-05-22,139948.0
1951-05-23,141263.0
1951-05-24,142868.0
1951-05-25,144587.0
1951-05-26,146822.0
1951-05-27,149423.0
1951-05-28,151631.0
1951-05-29,152942.0
1951-05-30,153158.0
1951-05-31,153158.0
1951-06-01,152996.0
1951-06-02,152834.0
1951-06-03,152915.0
1951-06-04,153077.0
1951-06-05,153158.0
1951-06-06,153104.0
1951-06-07,153023.0
1951-06-08,153077.0
1951-06-09,153104.0
1951-06-10,153050.0
1951-06-11,152915.0
1951-06-12,152861.0
1951-06-13,152915.0
1951-06-14,153077.0
1951-06-15,153212.0
1951-06-16,153293.0
1951-06-17,153347.0
1951-06-18,153320.0
1951-06-19,153239.0
1951-06-20,153239.0
1951-06-21,153509.0
1951-06-22,153455.0
1951-06-23,153131.0
1951-06-24,152861.0
1951-06-25,152834.0
1951-06-26,152888.0
1951-06-27,152915.0
1951-06-28,152915.0
1951-06-29,152861.0
1951-06-30,152834.0
1951-07-01,152807.0
1951-07-02,152672.0
1951-07-03,152457.0
1951-07-04,152324.0
1951-07-05,152164.0
1951-07-06,152031.0
1951-07-07,151791.0
1951-07-08,151525.0
1951-07-09,151124.0
1951-07-10,150645.0
1951-07-11,150165.0
1951-07-12,149740.0
1951-07-13,149292.0
1951-07-14,148844.0
1951-07-15,148423.0
1951-07-16,147975.0
1951-07-17,147501.0
1951-07-18,147030.0
1951-07-19,146562.0
1951-07-20,146094.0
1951-07-21,145704.0
1951-07-22,145392.0
1951-07-23,145028.0
1951-07-24,144664.0
1951-07-25,144279.0
1951-07-26,143894.0
1951-07-27,143510.0
1951-07-28,143252.0
1951-07-29,143047.0
1951-07-30,142868.0
1951-07-31,142740.0
1951-08-01,142560.0
1951-08-02,142483.0
1951-08-03,142304.0
1951-08-04,142483.0
1951-08-05,142791.0
1951-08-06,143047.0
1951-08-07,143201.0
1951-08-08,143330.0
1951-08-09,143431.0
1951-08-10,143458.0
1951-08-11,143022.0
1951-08-12,142432.0
1951-08-13,141820.0
1951-08-14,141238.0
1951-08-15,140656.0
1951-08-16,140074.0
1951-08-17,139518.0
1951-08-18,138970.0
1951-08-19,138423.0
1951-08-20,137950.0
1951-08-21,137526.0
1951-08-22,137128.0
1951-08-23,136735.0
1951-08-24,136343.0
1951-08-25,135976.0
1951-08-26,135609.0
1951-08-27,135217.0
1951-08-28,134825.0
1951-08-29,134388.0
1951-08-30,133955.0
1951-08-31,133497.0
1951-09-01,133088.0
1951-09-02,132679.0
1951-09-03,132269.0
1951-09-04,131842.0
1951-09-05,131416.0
1951-09-06,130990.0
1951-09-07,130539.0
1951-09-08,130090.0
1951-09-09,129643.0
1951-09-10,129200.0
1951-09-11,128757.0
1951-09-12,128314.0
1951-09-13,127870.0
1951-09-14,127406.0
1951-09-15,126946.0
1951-09-16,126510.0
1951-09-17,126073.0
1951-09-18,125637.0
1951-09-19,125200.0
1951-09-20,124792.0
1951-09-21,124384.0
1951-09-22,123975.0
1951-09-23,123545.0
1951-09-24,123114.0
1951-09-25,122686.0
1951-09-26,122261.0
1951-09-27,121835.0
1951-09-28,121409.0
1951-09-29,120984.0
1951-09-30,120561.0
1951-10-01,120250.0
1951-10-02,119963.0
1951-10-03,119720.0
1951-10-04,119609.0
1951-10-05,119542.0
1951-10-06,119520.0
1951-10-07,119498.0
1951-10-08,119498.0
1951-10-09,119498.0
1951-10-10,119498.0
1951-10-11,119498.0
1951-10-12,119498.0
1951-10-13,119498.0
1951-10-14,119520.0
1951-10-15,119565.0
1951-10-16,119609.0
1951-10-17,119631.0
1951-10-18,119653.0
1951-10-19,119675.0
1951-10-20,119697.0
1951-10-21,119720.0
1951-10-22,119742.0
1951-10-23,119786.0
1951-10-24,119874.0
1951-10-25,120007.0
1951-10-26,120161.0
1951-10-27,120273.0
1951-10-28,120383.0
1951-10-29,120339.0
1951-10-30,120294.0
1951-10-31,120272.0
1951-11-01,120206.0
1951-11-02,120140.0
1951-11-03,120073.0
1951-11-04,120007.0
1951-11-05,119940.0
1951-11-06,119814.0
1951-11-07,119830.0
1951-11-08,119830.0
1951-11-09,119852.0
1951-11-10,119874.0
1951-11-11,119985.0
1951-11-12,120117.0
1951-11-13,120262.0
1951-11-14,120427.0
1951-11-15,120560.0
1951-11-16,120494.0
1951-11-17,120505.0
1951-11-18,120316.0
1951-11-19,120272.0
1951-11-20,120361.0
1951-11-21,120450.0
1951-11-22,120538.0
1951-11-23,120627.0
1951-11-24,120715.0
1951-11-25,120782.0
1951-11-26,120827.0
1951-11-27,120827.0
1951-11-28,120804.0
1951-11-29,120782.0
1951-11-30,120760.0
1951-12-01,120760.0
1951-12-02,120760.0
1951-12-03,120560.0
1951-12-04,120782.0
1951-12-05,120804.0
1951-12-06,120827.0
1951-12-07,120693.0
1951-12-08,120560.0
1951-12-09,120426.0
1951-12-10,120228.0
1951-12-11,120007.0
1951-12-12,119786.0
1951-12-13,119565.0
1951-12-14,119431.0
1951-12-15,119321.0
1951-12-16,119277.0
1951-12-17,119232.0
1951-12-18,119232.0
1951-12-19,119232.0
1951-12-20,119210.0
1951-12-21,119166.0
1951-12-22,119122.0
1951-12-23,119079.0
1951-12-24,119035.0
1951-12-25,118990.0
1951-12-26,118945.0
1951-12-27,118901.0
1951-12-28,118856.0
1951-12-29,118834.0
1951-12-30,118834.0
1951-12-31,118834.0
1952-01-01,118680.0
1952-01-02,118524.0
1952-01-03,118371.0
1952-01-04,118217.0
1952-01-05,118130.0
1952-01-06,118130.0
1952-01-07,118130.0
1952-01-08,118130.0
1952-01-09,118130.0
1952-01-10,118130.0
1952-01-11,118130.0
1952-01-12,118130.0
1952-01-13,118130.0
1952-01-14,118130.0
1952-01-15,118130.0
1952-01-16,118108.0
1952-01-17,118086.0
1952-01-18,118064.0
1952-01-19,118020.0
1952-01-20,117977.0
1952-01-21,117955.0
1952-01-22,117933.0
1952-01-23,117911.0
1952-01-24,117890.0
1952-01-25,117955.0
1952-01-26,118020.0
1952-01-27,118064.0
1952-01-28,117868.0
1952-01-29,117627.0
1952-01-30,117386.0
1952-01-31,117145.0
1952-02-01,116948.0
1952-02-02,116774.0
1952-02-03,116621.0
1952-02-04,116489.0
1952-02-05,116402.0
1952-02-06,116314.0
1952-02-07,116163.0
1952-02-08,116012.0
1952-02-09,115860.0
1952-02-10,115708.0
1952-02-11,115622.0
1952-02-12,115535.0
1952-02-13,115449.0
1952-02-14,115363.0
1952-02-15,115276.0
1952-02-16,115190.0
1952-02-17,115103.0
1952-02-18,115017.0
1952-02-19,114931.0
1952-02-20,114844.0
1952-02-21,114736.0
1952-02-22,114627.0
1952-02-23,114519.0
1952-02-24,114412.0
1952-02-25,114304.0
1952-02-26,114195.0
1952-02-27,114088.0
1952-02-28,113981.0
1952-02-29,113874.0
1952-03-01,113810.0
1952-03-02,113767.0
1952-03-03,113725.0
1952-03-04,113682.0
1952-03-05,113618.0
1952-03-06,113554.0
1952-03-07,113447.0
1952-03-08,113341.0
1952-03-09,113234.0
1952-03-10,113124.0
1952-03-11,113020.0
1952-03-12,112913.0
1952-03-13,112827.0
1952-03-14,112763.0
1952-03-15,112700.0
1952-03-16,112571.0
1952-03-17,112443.0
1952-03-18,112337.0
1952-03-19,112230.0
1952-03-20,112123.0
1952-03-21,112037.0
1952-03-22,111953.0
1952-03-23,111868.0
1952-03-24,111784.0
1952-03-25,111700.0
1952-03-26,111636.0
1952-03-27,111573.0
1952-03-28,111531.0
1952-03-29,111489.0
1952-03-30,111531.0
1952-03-31,111594.0
1952-04-01,111657.0
1952-04-02,111763.0
1952-04-03,111911.0
1952-04-04,112080.0
1952-04-05,112336.0
1952-04-06,112806.0
1952-04-07,113468.0
1952-04-08,114217.0
1952-04-09,114974.0
1952-04-10,115730.0
1952-04-11,116489.0
1952-04-12,117342.0
1952-04-13,118217.0
1952-04-14,118945.0
1952-04-15,119453.0
1952-04-16,119609.0
1952-04-17,119387.0
1952-04-18,119653.0
1952-04-19,119985.0
1952-04-20,119985.0
1952-04-21,119941.0
1952-04-22,119786.0
1952-04-23,119720.0
1952-04-24,119874.0
1952-04-25,120450.0
1952-04-26,121611.0
1952-04-27,122955.0
1952-04-28,124316.0
1952-04-29,125064.0
1952-04-30,125453.0
1952-05-01,125866.0
1952-05-02,126096.0
1952-05-03,126763.0
1952-05-04,127521.0
1952-05-05,127824.0
1952-05-06,127940.0
1952-05-07,127591.0
1952-05-08,126579.0
1952-05-09,124837.0
1952-05-10,122843.0
1952-05-11,121051.0
1952-05-12,119454.0
1952-05-13,117911.0
1952-05-14,117342.0
1952-05-15,117299.0
1952-05-16,116861.0
1952-05-17,116055.0
1952-05-18,115484.0
1952-05-19,115233.0
1952-05-20,115817.0
1952-05-21,117408.0
1952-05-22,119542.0
1952-05-23,121611.0
1952-05-24,123577.0
1952-05-25,125453.0
1952-05-26,127521.0
1952-05-27,129783.0
1952-05-28,132462.0
1952-05-29,135536.0
1952-05-30,138398.0
1952-05-31,141516.0
1952-06-01,144484.0
1952-06-02,146666.0
1952-06-03,147975.0
1952-06-04,149187.0
1952-06-05,150698.0
1952-06-06,151764.0
1952-06-07,152297.0
1952-06-08,152431.0
1952-06-09,152431.0
1952-06-10,152510.0
1952-06-11,152297.0
1952-06-12,152217.0
1952-06-13,152377.0
1952-06-14,152350.0
1952-06-15,152297.0
1952-06-16,152377.0
1952-06-17,152431.0
1952-06-18,152431.0
1952-06-19,152431.0
1952-06-20,152377.0
1952-06-21,152297.0
1952-06-22,152297.0
1952-06-23,152484.0
1952-06-24,152915.0
1952-06-25,152915.0
1952-06-26,152753.0
1952-06-27,152618.0
1952-06-28,152564.0
1952-06-29,152564.0
1952-06-30,152484.0
1952-07-01,152350.0
1952-07-02,152217.0
1952-07-03,152084.0
1952-07-04,151951.0
1952-07-05,151898.0
1952-07-06,151898.0
1952-07-07,151844.0
1952-07-08,151791.0
1952-07-09,151764.0
1952-07-10,151764.0
1952-07-11,151764.0
1952-07-12,151764.0
1952-07-13,151764.0
1952-07-14,151684.0
1952-07-15,151551.0
1952-07-16,151338.0
1952-07-17,151124.0
1952-07-18,150911.0
1952-07-19,150698.0
1952-07-20,150431.0
1952-07-21,150138.0
1952-07-22,149793.0
1952-07-23,149424.0
1952-07-24,149055.0
1952-07-25,148897.0
1952-07-26,148765.0
1952-07-27,148634.0
1952-07-28,148502.0
1952-07-29,148265.0
1952-07-30,148054.0
1952-07-31,147844.0
1952-08-01,147606.0
1952-08-02,147343.0
1952-08-03,147056.0
1952-08-04,146770.0
1952-08-05,146484.0
1952-08-06,146224.0
1952-08-07,145964.0
1952-08-08,145704.0
1952-08-09,145574.0
1952-08-10,145522.0
1952-08-11,145470.0
1952-08-12,145264.0
1952-08-13,145054.0
1952-08-14,144846.0
1952-08-15,144613.0
1952-08-16,144356.0
1952-08-17,144100.0
1952-08-18,143844.0
1952-08-19,143586.0
1952-08-20,143330.0
1952-08-21,143074.0
1952-08-22,142818.0
1952-08-23,142560.0
1952-08-24,142604.0
1952-08-25,142022.0
1952-08-26,141668.0
1952-08-27,141314.0
1952-08-28,140985.0
1952-08-29,140706.0
1952-08-30,140514.0
1952-08-31,140200.0
1952-09-01,139821.0
1952-09-02,139444.0
1952-09-03,139045.0
1952-09-04,138622.0
1952-09-05,138149.0
1952-09-06,137651.0
1952-09-07,137153.0
1952-09-08,136662.0
1952-09-09,136172.0
1952-09-10,135682.0
1952-09-11,135192.0
1952-09-12,134762.0
1952-09-13,134268.0
1952-09-14,133811.0
1952-09-15,133353.0
1952-09-16,132871.0
1952-09-17,132390.0
1952-09-18,131937.0
1952-09-19,131464.0
1952-09-20,130990.0
1952-09-21,130516.0
1952-09-22,130043.0
1952-09-23,129620.0
1952-09-24,129247.0
1952-09-25,128897.0
1952-09-26,128547.0
1952-09-27,128197.0
1952-09-28,127847.0
1952-09-29,127497.0
1952-09-30,127153.0
1952-10-01,126763.0
1952-10-02,126372.0
1952-10-03,125981.0
1952-10-04,125591.0
1952-10-05,125200.0
1952-10-06,124860.0
1952-10-07,124497.0
1952-10-08,124135.0
1952-10-09,123771.0
1952-10-10,123454.0
1952-10-11,123409.0
1952-10-12,123364.0
1952-10-13,123296.0
1952-10-14,123205.0
1952-10-15,123115.0
1952-10-16,123091.0
1952-10-17,123068.0
1952-10-18,123046.0
1952-10-19,123023.0
1952-10-20,123000.0
1952-10-21,122978.0
1952-10-22,123000.0
1952-10-23,123023.0
1952-10-24,123046.0
1952-10-25,123068.0
1952-10-26,123091.0
1952-10-27,123114.0
1952-10-28,123159.0
1952-10-29,123205.0
1952-10-30,123250.0
1952-10-31,123296.0
1952-11-01,123296.0
1952-11-02,123296.0
1952-11-03,123296.0
1952-11-04,123296.0
1952-11-05,123296.0
1952-11-06,123296.0
1952-11-07,123364.0
1952-11-08,123432.0
1952-11-09,123500.0
1952-11-10,123590.0
1952-11-11,123703.0
1952-11-12,123817.0
1952-11-13,123930.0
1952-11-14,124089.0
1952-11-15,124316.0
1952-11-16,124475.0
1952-11-17,124611.0
1952-11-18,124724.0
1952-11-19,124837.0
1952-11-20,124951.0
1952-11-21,125064.0
1952-11-22,125178.0
1952-11-23,125223.0
1952-11-24,125200.0
1952-11-25,125155.0
1952-11-26,125041.0
1952-11-27,124928.0
1952-11-28,124928.0
1952-11-29,124928.0
1952-11-30,124882.0
1952-12-01,124905.0
1952-12-02,124928.0
1952-12-03,124996.0
1952-12-04,125064.0
1952-12-05,125109.0
1952-12-06,125109.0
1952-12-07,125109.0
1952-12-08,125109.0
1952-12-09,125109.0
1952-12-10,125109.0
1952-12-11,125132.0
1952-12-12,125155.0
1952-12-13,125178.0
1952-12-14,125200.0
1952-12-15,125223.0
1952-12-16,125155.0
1952-12-17,125041.0
1952-12-18,124928.0
1952-12-19,124883.0
1952-12-20,124860.0
1952-12-21,124814.0
1952-12-22,124746.0
1952-12-23,124679.0
1952-12-24,124611.0
1952-12-25,124543.0
1952-12-26,124384.0
1952-12-27,124202.0
1952-12-28,124021.0
1952-12-29,123976.0
1952-12-30,123930.0
1952-12-31,123907.0
1953-01-01,123839.0
1953-01-02,123771.0
1953-01-03,123703.0
1953-01-04,123635.0
1953-01-05,123567.0
1953-01-06,123522.0
1953-01-07,123477.0
1953-01-08,123432.0
1953-01-09,123386.0
1953-01-10,123341.0
1953-01-11,123296.0
1953-01-12,123432.0
1953-01-13,123885.0
1953-01-14,124316.0
1953-01-15,124588.0
1953-01-16,124882.0
1953-01-17,125338.0
1953-01-18,125912.0
1953-01-19,126441.0
1953-01-20,126901.0
1953-01-21,127291.0
1953-01-22,127638.0
1953-01-23,127917.0
1953-01-24,127987.0
1953-01-25,127894.0
1953-01-26,127754.0
1953-01-27,127521.0
1953-01-28,127245.0
1953-01-29,126969.0
1953-01-30,126786.0
1953-01-31,126648.0
1953-02-01,126464.0
1953-02-02,126280.0
1953-02-03,126096.0
1953-02-04,125912.0
1953-02-05,125729.0
1953-02-06,125568.0
1953-02-07,125430.0
1953-02-08,125292.0
1953-02-09,125132.0
1953-02-10,124860.0
1953-02-11,124588.0
1953-02-12,124316.0
1953-02-13,124044.0
1953-02-14,123748.0
1953-02-15,123454.0
1953-02-16,123227.0
1953-02-17,123000.0
1953-02-18,122776.0
1953-02-19,122529.0
1953-02-20,122261.0
1953-02-21,121992.0
1953-02-22,121723.0
1953-02-23,121454.0
1953-02-24,121185.0
1953-02-25,121002.0
1953-02-26,120827.0
1953-02-27,120648.0
1953-02-28,120494.0
1953-03-01,120294.0
1953-03-02,120095.0
1953-03-03,119896.0
1953-03-04,119675.0
1953-03-05,119453.0
1953-03-06,119232.0
1953-03-07,119100.0
1953-03-08,119011.0
1953-03-09,118945.0
1953-03-10,119056.0
1953-03-11,119210.0
1953-03-12,119277.0
1953-03-13,119277.0
1953-03-14,119277.0
1953-03-15,119277.0
1953-03-16,119255.0
1953-03-17,119233.0
1953-03-18,119210.0
1953-03-19,119188.0
1953-03-20,119166.0
1953-03-21,119188.0
1953-03-22,119210.0
1953-03-23,119233.0
1953-03-24,119255.0
1953-03-25,119360.0
1953-03-26,119476.0
1953-03-27,119565.0
1953-03-28,119675.0
1953-03-29,119720.0
1953-03-30,119675.0
1953-03-31,119565.0
1953-04-01,119387.0
1953-04-02,119188.0
1953-04-03,118989.0
1953-04-04,118812.0
1953-04-05,118635.0
1953-04-06,118458.0
1953-04-07,118239.0
1953-04-08,118020.0
1953-04-09,117824.0
1953-04-10,117627.0
1953-04-11,117430.0
1953-04-12,117233.0
1953-04-13,117136.0